QPF
0.02 0.02 0.02 0.02 0.02 0.04 0.04 0.04 0.04 0.03 0.03 0.03 0.03 0.03 0.05 0.06 0.06 0.05 0.04 0.03 0.02 0.03 0.03 0.02 0.03 0.03 0.04 0.05 0.03 0.03 0.03 0.03 0.03 0.02 0.02 0.03 0.07 0.08 0.08 0.06 0.06 0.06 0.07
0.07 0.06 0.03 0.02 0.02 0.03 0.04 0.05 0.04 0.03 0.03 0.02 0.02 0.02 0.03 0.04 0.05 0.05 0.04 0.03 0.04 0.03 0.02 0.02 0.02 0.02 0.02 0.03 0.03 0.03 0.03 0.05 0.04 0.02 0.02 0.02 0.04 0.05 0.05 0.06 0.07 0.08 0.08
0.05 0.06 0.06 0.03 0.02 0.03 0.04 0.05 0.05 0.03 0.02 0.02 0.02 0.02 0.03 0.03 0.04 0.04 0.04 0.03 0.03 0.04 0.02 0.01 0.01 0.01 0.01 0.02 0.03 0.02 0.03 0.04 0.04 0.02 0.01 0.01 0.03 0.05 0.04 0.03 0.05 0.07 0.09
0.03 0.03 0.05 0.06 0.04 0.03 0.04 0.05 0.05 0.03 0.03 0.02 0.01 0.02 0.02 0.02 0.03 0.04 0.05 0.05 0.03 0.02 0.02 0.01 0.01 0.01 0.01 0.02 0.03 0.03 0.03 0.04 0.03 0.02 0.01 0.01 0.02 0.04 0.03 0.02 0.02 0.03 0.04
0.01 0.01 0.01 0.02 0.03 0.04 0.05 0.05 0.04 0.03 0.03 0.03 0.02 0.02 0.02 0.02 0.02 0.03 0.04 0.05 0.05 0.04 0.03 0.02 0.01 0.01 0.01 0.01 0.02 0.02 0.03 0.03 0.02 0.02 0.02 0.02 0.02 0.03 0.03 0.02 0.02 0.02 0.03
0.01 0.01 0.01 0.02 0.03 0.03 0.04 0.05 0.04 0.03 0.03 0.02 0.02 0.02 0.02 0.01 0.01 0.02 0.04 0.04 0.04 0.04 0.04 0.03 0.02 0.01 0.01 0.01 0.02 0.02 0.03 0.03 0.02 0.02 0.02 0.02 0.01 0.02 0.03 0.04 0.03 0.03 0.03
0.03 0.03 0.02 0.02 0.03 0.04 0.05 0.05 0.05 0.03 0.03 0.02 0.02 0.03 0.02 0.01 0.02 0.02 0.03 0.04 0.05 0.04 0.03 0.03 0.03 0.01 0.01 0.01 0.02 0.02 0.02 0.02 0.02 0.02 0.02 0.01 0.01 0.02 0.04 0.06 0.05 0.04 0.04
0.03 0.06 0.04 0.03 0.04 0.04 0.05 0.06 0.04 0.03 0.03 0.02 0.02 0.02 0.02 0.01 0.02 0.02 0.03 0.04 0.04 0.04 0.04 0.04 0.04 0.03 0.02 0.02 0.02 0.02 0.01 0.01 0.02 0.02 0.02 0.02 0.02 0.03 0.04 0.05 0.06 0.04 0.03
0.02 0.04 0.08 0.07 0.05 0.04 0.05 0.04 0.04 0.04 0.04 0.03 0.02 0.02 0.02 0.02 0.02 0.02 0.02 0.03 0.03 0.03 0.05 0.05 0.05 0.04 0.04 0.04 0.04 0.02 0.02 0.01 0.01 0.02 0.02 0.02 0.02 0.03 0.03 0.04 0.04 0.04 0.02
0.03 0.03 0.04 0.06 0.06 0.05 0.05 0.04 0.03 0.05 0.04 0.04 0.03 0.03 0.02 0.01 0.01 0.02 0.03 0.03 0.02 0.02 0.03 0.04 0.05 0.04 0.05 0.06 0.04 0.04 0.03 0.02 0.03 0.03 0.02 0.02 0.02 0.02 0.03 0.03 0.03 0.04 0.02
0.03 0.04 0.04 0.03 0.04 0.06 0.05 0.04 0.04 0.04 0.04 0.04 0.03 0.03 0.03 0.02 0.02 0.02 0.02 0.03 0.02 0.02 0.02 0.02 0.02 0.04 0.05 0.06 0.05 0.04 0.04 0.04 0.04 0.04 0.03 0.02 0.02 0.01 0.01 0.02 0.02 0.03 0.03
0.03 0.03 0.04 0.04 0.04 0.05 0.06 0.05 0.05 0.04 0.04 0.03 0.03 0.03 0.03 0.02 0.02 0.02 0.02 0.02 0.02 0.03 0.02 0.02 0.03 0.03 0.04 0.05 0.05 0.05 0.05 0.06 0.06 0.05 0.05 0.02 0.01 0.01 0.02 0.02 0.02 0.02 0.03
0.03 0.03 0.03 0.04 0.05 0.05 0.05 0.05 0.05 0.05 0.04 0.03 0.03 0.03 0.03 0.03 0.03 0.03 0.03 0.02 0.02 0.03 0.03 0.03 0.04 0.05 0.06 0.06 0.05 0.04 0.04 0.04 0.04 0.04 0.04 0.03 0.02 0.02 0.02 0.02 0.02 0.01 0.01
0.02 0.02 0.02 0.03 0.04 0.04 0.05 0.05 0.05 0.06 0.06 0.05 0.05 0.04 0.03 0.04 0.03 0.03 0.03 0.03 0.03 0.03 0.04 0.04 0.04 0.04 0.06 0.08 0.08 0.06 0.04 0.03 0.03 0.03 0.03 0.03 0.04 0.03 0.02 0.02 0.03 0.02 0.02
0.02 0.02 0.03 0.03 0.04 0.05 0.05 0.05 0.05 0.05 0.06 0.07 0.07 0.06 0.04 0.04 0.03 0.03 0.03 0.03 0.03 0.03 0.04 0.05 0.06 0.05 0.05 0.06 0.06 0.07 0.06 0.04 0.03 0.03 0.03 0.03 0.03 0.03 0.03 0.03 0.03 0.03 0.02
0.02 0.03 0.04 0.04 0.04 0.05 0.05 0.05 0.05 0.06 0.07 0.08 0.08 0.08 0.06 0.05 0.05 0.05 0.05 0.05 0.05 0.04 0.04 0.05 0.05 0.06 0.05 0.05 0.06 0.07 0.07 0.05 0.04 0.03 0.03 0.03 0.03 0.03 0.02 0.03 0.03 0.03 0.03
0.04 0.04 0.05 0.05 0.05 0.04 0.04 0.04 0.04 0.05 0.08 0.09 0.10 0.11 0.11 0.09 0.07 0.06 0.07 0.08 0.07 0.05 0.04 0.04 0.04 0.04 0.05 0.06 0.06 0.06 0.06 0.05 0.04 0.04 0.03 0.03 0.02 0.02 0.02 0.02 0.02 0.03 0.03
0.04 0.04 0.05 0.05 0.05 0.05 0.05 0.05 0.05 0.06 0.07 0.08 0.10 0.11 0.12 0.11 0.09 0.08 0.08 0.09 0.09 0.08 0.06 0.04 0.04 0.04 0.05 0.05 0.06 0.05 0.05 0.04 0.04 0.03 0.03 0.03 0.03 0.03 0.02 0.02 0.02 0.02 0.02
0.03 0.03 0.04 0.04 0.04 0.04 0.04 0.03 0.04 0.04 0.06 0.08 0.08 0.09 0.11 0.10 0.08 0.07 0.06 0.07 0.09 0.09 0.08 0.06 0.04 0.03 0.05 0.05 0.05 0.05 0.04 0.03 0.04 0.04 0.03 0.03 0.03 0.03 0.03 0.03 0.03 0.04 0.03
0.02 0.03 0.03 0.03 0.02 0.02 0.02 0.02 0.02 0.04 0.05 0.06 0.07 0.07 0.09 0.10 0.09 0.07 0.06 0.06 0.08 0.11 0.10 0.09 0.07 0.06 0.05 0.05 0.05 0.06 0.06 0.05 0.05 0.05 0.04 0.04 0.05 0.05 0.05 0.05 0.05 0.04 0.04
0.02 0.02 0.02 0.02 0.01 0.02 0.02 0.02 0.02 0.03 0.04 0.05 0.07 0.08 0.08 0.09 0.11 0.10 0.09 0.07 0.07 0.09 0.10 0.09 0.09 0.09 0.08 0.08 0.08 0.08 0.07 0.06 0.06 0.06 0.05 0.05 0.05 0.05 0.06 0.06 0.06 0.05 0.04
0.03 0.02 0.02 0.02 0.01 0.01 0.01 0.01 0.01 0.02 0.02 0.02 0.02 0.04 0.05 0.06 0.08 0.10 0.10 0.09 0.08 0.07 0.07 0.07 0.07 0.07 0.08 0.09 0.09 0.10 0.09 0.08 0.08 0.07 0.06 0.05 0.05 0.05 0.04 0.04 0.04 0.04 0.04
0.03 0.02 0.02 0.02 0.02 0.02 0.02 0.01 0.01 0.02 0.01 0.01 0.01 0.01 0.02 0.04 0.05 0.07 0.08 0.07 0.08 0.08 0.07 0.06 0.07 0.06 0.06 0.06 0.07 0.07 0.07 0.07 0.07 0.07 0.06 0.05 0.04 0.04 0.04 0.04 0.04 0.04 0.04
0.02 0.02 0.02 0.02 0.02 0.02 0.02 0.01 0.01 0.01 0.00 0.00 0.00 0.01 0.01 0.02 0.03 0.04 0.07 0.07 0.06 0.07 0.07 0.06 0.06 0.06 0.05 0.04 0.04 0.04 0.03 0.03 0.03 0.03 0.04 0.04 0.05 0.05 0.05 0.05 0.04 0.04 0.03
0.03 0.03 0.03 0.03 0.02 0.02 0.02 0.01 0.01 0.00 0.00 0.00 0.00 0.01 0.01 0.01 0.01 0.02 0.03 0.05 0.06 0.05 0.04 0.04 0.04 0.04 0.04 0.04 0.03 0.03 0.03 0.02 0.02 0.02 0.02 0.02 0.02 0.03 0.03 0.04 0.04 0.04 0.03
0.03 0.03 0.03 0.03 0.04 0.04 0.04 0.03 0.02 0.02 0.01 0.01 0.01 0.01 0.01 0.01 0.01 0.01 0.02 0.02 0.04 0.05 0.05 0.04 0.03 0.03 0.03 0.03 0.03 0.03 0.02 0.02 0.01 0.01 0.01 0.01 0.01 0.02 0.02 0.03 0.02 0.02 0.02
MSLP
1009.27 1009.65 1010.06 1010.46 1010.84 1011.20 1011.54 1011.88 1012.22 1012.60 1013.01 1013.46 1013.94 1014.41 1014.86 1015.24 1015.55 1015.78 1015.93 1016.03 1016.10 1016.18 1016.29 1016.47 1016.73 1017.07 1017.48 1017.96 1018.48 1019.03 1019.59 1020.15 1020.68 1021.18 1021.61 1021.98 1022.28 1022.49 1022.63 1022.69 1022.71 1022.69 1022.66
1009.13 1009.48 1009.87 1010.29 1010.73 1011.16 1011.59 1012.01 1012.45 1012.89 1013.35 1013.82 1014.29 1014.74 1015.16 1015.51 1015.81 1016.02 1016.18 1016.28 1016.35 1016.42 1016.51 1016.64 1016.82 1017.08 1017.40 1017.78 1018.23 1018.72 1019.25 1019.80 1020.34 1020.87 1021.35 1021.77 1022.11 1022.36 1022.53 1022.61 1022.63 1022.60 1022.55
1008.88 1009.23 1009.64 1010.10 1010.60 1011.12 1011.65 1012.17 1012.68 1013.19 1013.68 1014.16 1014.61 1015.02 1015.39 1015.70 1015.95 1016.14 1016.28 1016.38 1016.45 1016.52 1016.60 1016.71 1016.86 1017.07 1017.33 1017.66 1018.05 1018.49 1018.99 1019.52 1020.06 1020.60 1021.10 1021.54 1021.91 1022.19 1022.37 1022.47 1022.49 1022.46 1022.40
1008.57 1008.94 1009.39 1009.92 1010.50 1011.10 1011.72 1012.33 1012.91 1013.47 1013.99 1014.46 1014.88 1015.24 1015.54 1015.79 1015.98 1016.12 1016.23 1016.31 1016.39 1016.46 1016.55 1016.67 1016.82 1017.02 1017.26 1017.56 1017.92 1018.33 1018.80 1019.30 1019.82 1020.34 1020.83 1021.28 1021.65 1021.94 1022.13 1022.24 1022.28 1022.25 1022.18
1008.27 1008.67 1009.17 1009.75 1010.39 1011.07 1011.76 1012.44 1013.08 1013.67 1014.20 1014.66 1015.04 1015.34 1015.57 1015.75 1015.87 1015.96 1016.03 1016.09 1016.17 1016.26 1016.37 1016.51 1016.69 1016.90 1017.16 1017.46 1017.81 1018.20 1018.64 1019.11 1019.59 1020.08 1020.54 1020.96 1021.32 1021.60 1021.79 1021.91 1021.96 1021.94 1021.88
1008.03 1008.45 1008.97 1009.58 1010.26 1010.98 1011.71 1012.42 1013.09 1013.70 1014.23 1014.67 1015.01 1015.26 1015.43 1015.54 1015.60 1015.64 1015.68 1015.73 1015.81 1015.92 1016.07 1016.25 1016.47 1016.73 1017.02 1017.34 1017.69 1018.08 1018.48 1018.91 1019.35 1019.79 1020.20 1020.58 1020.90 1021.16 1021.35 1021.48 1021.54 1021.55 1021.51
1007.87 1008.27 1008.78 1009.38 1010.05 1010.76 1011.48 1012.19 1012.86 1013.46 1013.98 1014.40 1014.72 1014.95 1015.08 1015.16 1015.18 1015.20 1015.22 1015.26 1015.35 1015.49 1015.68 1015.92 1016.19 1016.50 1016.83 1017.18 1017.54 1017.92 1018.30 1018.69 1019.07 1019.45 1019.80 1020.13 1020.41 1020.65 1020.84 1020.98 1021.07 1021.10 1021.10
1007.78 1008.13 1008.58 1009.11 1009.71 1010.35 1011.02 1011.68 1012.31 1012.90 1013.41 1013.83 1014.15 1014.38 1014.52 1014.59 1014.63 1014.65 1014.68 1014.75 1014.87 1015.05 1015.28 1015.57 1015.89 1016.25 1016.62 1016.99 1017.36 1017.72 1018.08 1018.42 1018.75 1019.06 1019.36 1019.63 1019.88 1020.10 1020.29 1020.44 1020.56 1020.64 1020.69
1007.72 1007.98 1008.32 1008.73 1009.21 1009.74 1010.30 1010.89 1011.47 1012.02 1012.53 1012.96 1013.32 1013.59 1013.78 1013.90 1013.99 1014.06 1014.14 1014.25 1014.42 1014.64 1014.92 1015.25 1015.61 1016.00 1016.39 1016.78 1017.15 1017.50 1017.82 1018.12 1018.39 1018.65 1018.90 1019.12 1019.34 1019.55 1019.74 1019.91 1020.06 1020.19 1020.29
1007.66 1007.79 1007.99 1008.24 1008.56 1008.94 1009.38 1009.86 1010.37 1010.90 1011.41 1011.88 1012.29 1012.64 1012.92 1013.15 1013.32 1013.48 1013.64 1013.82 1014.04 1014.31 1014.63 1014.99 1015.38 1015.79 1016.19 1016.58 1016.94 1017.26 1017.55 1017.81 1018.04 1018.25 1018.45 1018.64 1018.83 1019.03 1019.23 1019.42 1019.61 1019.78 1019.93
1007.55 1007.55 1007.58 1007.66 1007.80 1008.02 1008.32 1008.70 1009.14 1009.64 1010.16 1010.69 1011.18 1011.64 1012.03 1012.38 1012.67 1012.94 1013.20 1013.46 1013.75 1014.06 1014.42 1014.81 1015.21 1015.62 1016.02 1016.39 1016.73 1017.03 1017.28 1017.50 1017.70 1017.87 1018.04 1018.21 1018.38 1018.57 1018.77 1018.98 1019.20 1019.40 1019.58
1007.38 1007.23 1007.11 1007.02 1007.00 1007.06 1007.24 1007.52 1007.90 1008.38 1008.92 1009.50 1010.08 1010.64 1011.16 1011.63 1012.06 1012.44 1012.79 1013.14 1013.49 1013.86 1014.24 1014.65 1015.05 1015.46 1015.85 1016.20 1016.52 1016.79 1017.02 1017.22 1017.39 1017.54 1017.68 1017.83 1018.00 1018.18 1018.39 1018.60 1018.83 1019.05 1019.25
1007.13 1006.87 1006.61 1006.38 1006.22 1006.16 1006.23 1006.43 1006.77 1007.23 1007.79 1008.41 1009.07 1009.72 1010.34 1010.91 1011.44 1011.92 1012.37 1012.78 1013.19 1013.60 1014.01 1014.43 1014.84 1015.24 1015.62 1015.97 1016.28 1016.54 1016.76 1016.94 1017.09 1017.23 1017.37 1017.51 1017.67 1017.85 1018.05 1018.26 1018.48 1018.70 1018.90
1006.83 1006.48 1006.12 1005.79 1005.54 1005.40 1005.39 1005.54 1005.84 1006.28 1006.84 1007.48 1008.16 1008.86 1009.54 1010.18 1010.77 1011.32 1011.82 1012.29 1012.74 1013.18 1013.61 1014.05 1014.48 1014.89 1015.27 1015.63 1015.94 1016.21 1016.43 1016.62 1016.78 1016.93 1017.06 1017.21 1017.37 1017.54 1017.73 1017.93 1018.13 1018.34 1018.53
1006.51 1006.10 1005.69 1005.31 1005.01 1004.83 1004.78 1004.89 1005.16 1005.56 1006.09 1006.71 1007.38 1008.06 1008.73 1009.38 1009.98 1010.54 1011.06 1011.55 1012.02 1012.49 1012.95 1013.41 1013.86 1014.30 1014.72 1015.10 1015.44 1015.74 1015.99 1016.21 1016.39 1016.56 1016.71 1016.87 1017.03 1017.20 1017.38 1017.57 1017.76 1017.94 1018.11
1006.22 1005.79 1005.37 1004.99 1004.68 1004.49 1004.42 1004.50 1004.73 1005.08 1005.54 1006.09 1006.68 1007.28 1007.89 1008.46 1009.01 1009.53 1010.03 1010.51 1010.98 1011.47 1011.96 1012.45 1012.95 1013.43 1013.90 1014.33 1014.72 1015.07 1015.37 1015.63 1015.86 1016.06 1016.24 1016.42 1016.59 1016.77 1016.96 1017.14 1017.33 1017.50 1017.65
1006.03 1005.61 1005.20 1004.84 1004.56 1004.38 1004.31 1004.36 1004.53 1004.81 1005.17 1005.59 1006.05 1006.52 1006.99 1007.45 1007.89 1008.32 1008.76 1009.20 1009.66 1010.15 1010.66 1011.19 1011.74 1012.28 1012.81 1013.31 1013.76 1014.17 1014.54 1014.85 1015.12 1015.37 1015.59 1015.80 1016.01 1016.21 1016.41 1016.61 1016.81 1016.98 1017.14
1005.99 1005.59 1005.23 1004.91 1004.66 1004.50 1004.42 1004.44 1004.55 1004.72 1004.96 1005.22 1005.51 1005.81 1006.10 1006.40 1006.70 1007.01 1007.35 1007.73 1008.16 1008.64 1009.17 1009.73 1010.32 1010.92 1011.51 1012.07 1012.60 1013.07 1013.48 1013.85 1014.18 1014.47 1014.74 1014.99 1015.23 1015.48 1015.72 1015.95 1016.18 1016.38 1016.56
1006.15 1005.78 1005.46 1005.19 1004.97 1004.83 1004.75 1004.73 1004.76 1004.82 1004.91 1005.01 1005.11 1005.21 1005.32 1005.43 1005.58 1005.76 1005.99 1006.30 1006.68 1007.14 1007.66 1008.24 1008.86 1009.50 1010.13 1010.74 1011.30 1011.81 1012.27 1012.68 1013.04 1013.37 1013.68 1013.98 1014.27 1014.56 1014.86 1015.15 1015.42 1015.68 1015.91
1006.52 1006.19 1005.91 1005.68 1005.50 1005.37 1005.27 1005.21 1005.16 1005.11 1005.06 1005.00 1004.92 1004.84 1004.77 1004.72 1004.71 1004.76 1004.89 1005.11 1005.43 1005.85 1006.35 1006.92 1007.54 1008.18 1008.82 1009.43 1010.01 1010.53 1011.00 1011.42 1011.80 1012.15 1012.49 1012.82 1013.15 1013.50 1013.85 1014.21 1014.55 1014.88 1015.17
1007.12 1006.82 1006.57 1006.37 1006.21 1006.08 1005.98 1005.87 1005.75 1005.61 1005.44 1005.24 1005.03 1004.80 1004.58 1004.39 1004.26 1004.20 1004.23 1004.37 1004.62 1004.98 1005.43 1005.96 1006.53 1007.14 1007.74 1008.32 1008.86 1009.35 1009.79 1010.19 1010.56 1010.91 1011.25 1011.60 1011.97 1012.36 1012.77 1013.19 1013.60 1014.00 1014.37
1007.92 1007.63 1007.41 1007.23 1007.08 1006.96 1006.83 1006.69 1006.53 1006.32 1006.07 1005.79 1005.48 1005.15 1004.84 1004.56 1004.34 1004.19 1004.15 1004.21 1004.39 1004.67 1005.05 1005.49 1005.99 1006.51 1007.03 1007.53 1007.99 1008.41 1008.79 1009.14 1009.46 1009.78 1010.11 1010.45 1010.83 1011.24 1011.69 1012.15 1012.62 1013.08 1013.51
1008.86 1008.59 1008.38 1008.22 1008.08 1007.96 1007.82 1007.67 1007.47 1007.24 1006.96 1006.64 1006.29 1005.93 1005.57 1005.25 1004.99 1004.79 1004.69 1004.69 1004.78 1004.98 1005.25 1005.59 1005.97 1006.38 1006.78 1007.16 1007.52 1007.84 1008.12 1008.39 1008.64 1008.91 1009.19 1009.50 1009.86 1010.27 1010.71 1011.19 1011.68 1012.17 1012.64
1009.89 1009.64 1009.44 1009.28 1009.15 1009.02 1008.89 1008.73 1008.54 1008.31 1008.04 1007.73 1007.39 1007.04 1006.70 1006.38 1006.11 1005.90 1005.75 1005.69 1005.71 1005.81 1005.98 1006.19 1006.44 1006.70 1006.97 1007.22 1007.44 1007.65 1007.83 1008.01 1008.18 1008.37 1008.58 1008.84 1009.16 1009.52 1009.93 1010.38 1010.85 1011.33 1011.80
1010.94 1010.70 1010.51 1010.36 1010.23 1010.11 1009.99 1009.84 1009.67 1009.47 1009.24 1008.97 1008.69 1008.39 1008.09 1007.80 1007.55 1007.33 1007.17 1007.06 1007.00 1007.00 1007.05 1007.14 1007.25 1007.37 1007.50 1007.62 1007.72 1007.82 1007.90 1007.98 1008.07 1008.18 1008.33 1008.52 1008.75 1009.04 1009.38 1009.76 1010.17 1010.60 1011.02
1011.99 1011.76 1011.57 1011.42 1011.30 1011.18 1011.07 1010.94 1010.80 1010.64 1010.46 1010.26 1010.04 1009.80 1009.56 1009.33 1009.10 1008.89 1008.71 1008.55 1008.43 1008.34 1008.27 1008.24 1008.22 1008.22 1008.22 1008.23 1008.23 1008.24 1008.24 1008.25 1008.27 1008.31 1008.37 1008.48 1008.63 1008.82 1009.06 1009.33 1009.64 1009.97 1010.31
Thickness
5701 5701 5700 5700 5700 5699 5698 5698 5698 5697 5697 5697 5697 5697 5696 5696 5696 5695 5693 5692 5690 5689 5689 5688 5686 5686 5685 5684 5684 5684 5682 5681 5677 5679 5682 5684 5685 5686 5687 5687 5688 5688 5687
5694 5694 5693 5693 5692 5692 5692 5692 5692 5692 5693 5693 5692 5692 5692 5691 5691 5690 5688 5688 5686 5684 5684 5683 5682 5682 5680 5679 5679 5678 5678 5677 5675 5673 5675 5677 5679 5681 5682 5682 5683 5684 5683
5687 5686 5685 5685 5685 5685 5686 5687 5687 5687 5687 5688 5688 5687 5687 5686 5686 5685 5684 5683 5682 5681 5680 5679 5677 5676 5674 5674 5673 5673 5673 5673 5672 5669 5669 5671 5673 5675 5676 5677 5678 5678 5679
5679 5678 5677 5677 5678 5679 5680 5681 5682 5683 5683 5683 5683 5683 5683 5682 5681 5680 5679 5679 5678 5677 5676 5675 5674 5673 5671 5670 5669 5668 5668 5666 5666 5665 5664 5665 5666 5668 5669 5668 5669 5671 5672
5673 5671 5671 5672 5673 5674 5675 5676 5677 5677 5679 5679 5679 5678 5678 5677 5677 5675 5674 5674 5672 5671 5671 5670 5670 5670 5669 5668 5666 5664 5663 5661 5659 5659 5658 5659 5660 5661 5662 5663 5663 5664 5666
5666 5665 5666 5667 5668 5669 5669 5670 5671 5672 5673 5673 5673 5673 5673 5673 5673 5671 5670 5668 5667 5666 5665 5665 5665 5665 5664 5664 5663 5662 5661 5658 5655 5654 5653 5653 5655 5657 5658 5658 5656 5656 5657
5660 5660 5661 5661 5662 5663 5665 5664 5665 5666 5668 5668 5668 5668 5668 5668 5668 5667 5666 5664 5662 5661 5660 5659 5660 5660 5659 5658 5657 5657 5657 5657 5656 5653 5651 5652 5652 5654 5654 5653 5652 5651 5652
5654 5655 5655 5656 5657 5658 5658 5659 5660 5662 5663 5663 5663 5664 5663 5663 5663 5662 5660 5658 5657 5656 5656 5655 5653 5653 5653 5652 5651 5650 5650 5651 5652 5652 5652 5652 5652 5652 5651 5651 5650 5649 5650
5651 5651 5651 5652 5652 5653 5653 5654 5656 5657 5658 5658 5659 5659 5659 5658 5658 5657 5655 5652 5651 5650 5651 5650 5649 5648 5648 5647 5645 5643 5643 5645 5647 5648 5649 5648 5649 5649 5648 5645 5643 5641 5640
5646 5646 5647 5648 5648 5648 5649 5650 5652 5653 5654 5654 5655 5655 5655 5654 5654 5652 5650 5647 5645 5645 5645 5645 5644 5644 5643 5641 5639 5637 5636 5638 5640 5641 5641 5642 5643 5644 5643 5641 5639 5636 5634
5641 5642 5642 5643 5643 5645 5646 5647 5648 5648 5649 5650 5650 5651 5651 5650 5649 5648 5645 5643 5641 5640 5639 5638 5639 5639 5638 5636 5634 5633 5633 5633 5633 5633 5633 5634 5635 5636 5636 5636 5636 5634 5631
5635 5636 5636 5637 5639 5641 5641 5642 5643 5643 5643 5644 5644 5645 5645 5645 5644 5643 5641 5639 5638 5636 5635 5634 5634 5633 5632 5630 5629 5629 5628 5627 5626 5626 5626 5626 5627 5628 5629 5630 5630 5630 5630
5628 5629 5630 5632 5634 5635 5635 5636 5636 5637 5638 5638 5639 5639 5639 5640 5639 5638 5637 5635 5634 5632 5631 5630 5629 5628 5626 5624 5624 5623 5622 5621 5620 5619 5619 5620 5622 5623 5623 5623 5624 5624 5624
5622 5622 5624 5626 5627 5629 5630 5631 5631 5632 5633 5634 5634 5635 5635 5635 5634 5633 5631 5630 5628 5627 5625 5624 5623 5622 5620 5619 5618 5616 5615 5615 5615 5614 5614 5615 5615 5615 5616 5616 5615 5615 5614
5616 5617 5618 5620 5621 5622 5623 5624 5626 5628 5630 5630 5631 5632 5631 5630 5631 5630 5627 5625 5623 5622 5620 5617 5615 5614 5612 5611 5610 5610 5609 5608 5608 5608 5608 5607 5608 5608 5608 5608 5608 5608 5606
5611 5611 5612 5614 5615 5616 5616 5618 5621 5623 5625 5627 5628 5628 5628 5628 5628 5625 5623 5621 5619 5616 5613 5610 5609 5609 5608 5607 5605 5604 5603 5602 5602 5602 5602 5601 5601 5601 5601 5602 5601 5600 5600
5607 5607 5607 5608 5609 5610 5611 5612 5613 5616 5619 5620 5621 5622 5622 5622 5621 5619 5617 5614 5612 5610 5606 5606 5605 5604 5603 5602 5601 5599 5598 5598 5597 5596 5596 5595 5595 5595 5595 5595 5594 5593 5593
5604 5604 5604 5604 5604 5605 5606 5606 5608 5609 5610 5612 5614 5615 5615 5615 5614 5613 5610 5607 5604 5602 5601 5601 5600 5599 5598 5597 5596 5595 5593 5592 5591 5590 5590 5589 5589 5588 5588 5588 5587 5587 5587
5601 5600 5601 5601 5601 5601 5602 5602 5603 5604 5604 5605 5606 5608 5608 5607 5607 5605 5603 5600 5599 5597 5597 5596 5596 5595 5594 5593 5592 5590 5589 5587 5586 5585 5584 5584 5583 5582 5581 5581 5581 5580 5579
5597 5597 5597 5597 5597 5596 5596 5596 5597 5597 5598 5598 5599 5600 5600 5599 5598 5597 5595 5594 5593 5592 5591 5591 5590 5590 5589 5587 5586 5585 5583 5582 5580 5579 5578 5578 5576 5575 5574 5574 5573 5573 5572
5592 5591 5592 5591 5591 5591 5591 5591 5591 5591 5592 5593 5594 5595 5594 5593 5592 5591 5588 5587 5586 5585 5584 5584 5583 5582 5582 5581 5580 5578 5577 5575 5574 5572 5571 5570 5569 5568 5567 5566 5565 5565 5564
5586 5586 5585 5585 5585 5585 5585 5585 5585 5585 5586 5587 5587 5588 5587 5585 5584 5583 5582 5581 5580 5579 5578 5577 5576 5575 5575 5573 5572 5571 5569 5568 5566 5565 5563 5562 5561 5560 5559 5558 5557 5556 5556
5580 5579 5579 5579 5579 5580 5580 5579 5579 5579 5579 5580 5580 5580 5579 5578 5577 5576 5575 5574 5573 5572 5571 5570 5569 5568 5567 5566 5564 5562 5561 5559 5558 5558 5556 5555 5554 5552 5552 5551 5550 5549 5549
5574 5573 5572 5572 5572 5572 5572 5572 5572 5573 5573 5573 5573 5573 5572 5571 5570 5569 5568 5566 5565 5564 5563 5562 5561 5559 5558 5556 5555 5554 5553 5552 5551 5550 5549 5548 5547 5546 5545 5544 5544 5543 5542
5566 5566 5565 5565 5564 5564 5565 5565 5565 5565 5566 5566 5566 5566 5565 5563 5562 5561 5560 5559 5557 5556 5555 5554 5553 5551 5549 5548 5547 5546 5545 5544 5543 5542 5542 5541 5540 5538 5537 5537 5535 5535 5535
5558 5558 5557 5557 5557 5557 5557 5557 5558 5558 5558 5558 5558 5557 5557 5556 5554 5553 5552 5551 5549 5548 5547 5546 5544 5543 5541 5540 5539 5538 5537 5537 5536 5535 5534 5533 5532 5530 5529 5528 5528 5527 5527